Location: Chagrin Falls Park
(41.4139°N, 81.3865°W)
Time: 07:27:16
(UTC+00:00)

X-37B - Pass Details

Date: 04 August 2021
Orbit: 381 x 393 km, 45.0° (Epoch: 29 August)

Event Time Altitude Azimuth Distance (km) Brightness Sun altitude
Exits shadow 08:25:29 80° 141° (SE) 390 0.4 -19.0°
Drops below altitude 10° 08:28:35 10° 71° (ENE) 1,397 4.3 -18.6°
Sets 08:30:39 0° 70° (ENE) 2,253 5.6 -18.3°
